Regional Weather Roundup
Issued by NWS

Home | Current Version | Previous Version | Graphics & Text | Print | Product List | Glossary On
Versions: 1 2 3 4 5 6 7 8 9 10 11 12 13 14 15 16 17 18 19 20 21 22 23 24 25 26 27 28 29 30 31 32 33 34 35 36 37 38 39 40 41 42 43 44 45 46 47 48 49 50
000
ASUS43 KTOP 111559
RWRKS

WEATHER ROUNDUP FOR KANSAS
NATIONAL WEATHER SERVICE GOODLAND KS
1000 AM CST MON DEC 11 2017

NOTE:  "FAIR" INDICATES FEW OR NO CLOUDS BELOW 12,000 FEET WITH NO
SIGNIFICANT WEATHER AND/OR OBSTRUCTIONS TO VISIBILITY.

KSZ001>006-013>018-027>032-041>047-111700-
NORTHWEST KANSAS

CITY           SKY/WX    TMP DP  RH WIND       PRES   REMARKS
GOODLAND       SUNNY     49  10  20 NW18G26   30.27R
HAYS           CLOUDY    52  15  23 NW14      30.19S
HILL CITY      MOSUNNY   49  15  25 NW12      30.20S
RUSSELL        CLOUDY    51  15  23 NW21      30.16R
$$

KSZ061>065-074>080-084>089-111700-
SOUTHWEST KANSAS

CITY           SKY/WX    TMP DP  RH WIND       PRES   REMARKS
DODGE CITY     SUNNY     51  12  21 NW15G23   30.24S
GARDEN CITY    SUNNY     45   8  22 NW14      30.28R
GREAT BEND     SUNNY     50  14  23 NW16G23   30.19R
LIBERAL        SUNNY     48   7  18 N17       30.28R
$$

KSZ066>073-081>083-090>101-111700-
SOUTHEAST KANSAS

CITY           SKY/WX    TMP DP  RH WIND       PRES   REMARKS
CHANUTE        SUNNY     50  17  27 NW14      30.08R
COFFEYVILLE    SUNNY     51  19  28 W9        30.10S
HUTCHINSON     MOSUNNY   51  14  22 NW14      30.15R
MEDICINE LODGE   N/A     53  14  21 NW17      30.17S
NEWTON         MOSUNNY   48  15  26 NW14      30.13S
PARSONS        SUNNY     51  18  27 NW13      30.10S
WICHITA INTL   MOSUNNY   50  13  22 NW16      30.14R
WICHITA JABRA  SUNNY     49  14  24 NW14      30.14R
WICHITA MCCONL SUNNY     51  12  20 N16G24    30.13R
WINFIELD       SUNNY     48  18  30 NW8       30.15R
$$

KSZ007>012-019>026-033>040-048>060-102>105-111700-
NORTHEAST KANSAS

CITY           SKY/WX    TMP DP  RH WIND       PRES   REMARKS
CONCORDIA      CLOUDY    53  15  22 NW14      30.08S
EMPORIA        MOSUNNY   49  16  26 W14       30.08R
LAWRENCE       CLOUDY    45  21  38 W10       30.02R
MANHATTAN      CLOUDY    48  18  30 W5        30.07S
OLATHE IND     CLOUDY    48  18  30 W18G26    30.02R
OLATHE EXE     MOSUNNY   46  18  32 NW22G29   30.00R
SALINA         MOSUNNY   52  17  25 NW13      30.13S
TOPEKA BILLARD CLOUDY    45  19  35 W9        30.03R
TOPEKA FORBES  CLOUDY    51  18  27 NW15      30.02S
$$




USA.gov is the U.S. government's official web portal to all federal, state and local government web resources and services.